OpenBCM V1.13 (Linux)

Packet Radio Mailbox

DB0FHN

[JN59NK Nuernberg]

 Login: GUEST





  
LU1HVK > KEP      05.10.19 08:34l 243 Lines 12025 Bytes #999 (0) @ WW
BID : 32828_LU1HVK
Read: DJ6UX DF7EAV GUEST
Subj: TLE 05 10
Path: DB0FHN<DB0BLO<DB0ERF<IZ3LSV<IW0QNL<VE2PKT<ZL2BAU<N9PMO<WH6FQE<N7HPX<
      LU1HVK
Sent: 191005/0523Z 32828@LU1HVK.2594.CBA.ARG.SA LinBPQ6.0.19

                         _    _   _ _ _   ___     ___  __
                        | |  | | | / | | | \ \   / / |/ /
                        | |  | | | | | |_| |\ \ / /| ' /
                        | |__| |_| | |  _  | \ V / | . \
                        |_____\___/|_|_| |_|  \_/  |_|\_\

     BBS/NODO - CORDOBA (LEONES-FF87UH) - LU1HVK-4 NODO - LU1HVK-3 APRS

+----------------------------------------------------------------------------+
OSCAR 7
1  7530U 74089B   19277.91684793 -.00000033 +00000-0 +76026-4 0  9998
2  7530 101.7582 244.5184 0012283 136.7287 284.6993 12.53640062053849
OSCAR 11 (UoSAT 2)
1 14781U 84021B   19277.91859711 +.00000055 +00000-0 +12842-4 0  9994
2 14781 097.6059 297.4869 0007695 333.6528 026.4294 14.83109835893808
OSCAR 19 (LUSAT)
1 20442U 90005G   19277.90090122 +.00000014 +00000-0 +21377-4 0  9994
2 20442 098.6568 219.7589 0011526 185.2093 174.8972 14.32934024551810
EYESAT A
1 22825U 93061C   19277.87804938 -.00000014  00000-0  12662-4 0  9998
2 22825  98.9124 269.0279 0009227  48.7863 311.4112 14.30067568357418
ITAMSAT
1 22826U 93061D   19277.92445010 -.00000007 +00000-0 +15070-4 0  9995
2 22826 098.9064 269.0531 0009593 037.9727 322.2129 14.30401697357376
RADIO ROSTO
1 23439U 94085A   19277.89579978 -.00000044 +00000-0 -59237-4 0  9995
2 23439 064.8157 301.1461 0145267 092.1590 269.5975 11.27568162020094
JAS 2
1 24278U 96046B   19277.87782468 -.00000032 +00000-0 +63074-5 0  9995
2 24278 098.5541 056.6859 0349607 319.6783 037.8904 13.53093555142188
TECHSAT 1B
1 25397U 98043D   19277.78167886 -.00000001 +00000-0 +18757-4 0  9991
2 25397 098.6959 216.6493 0002397 084.9685 275.1767 14.23671532103032
ISS (ZARYA)
1 25544U 98067A   19278.03979337 -.00000461  00000-0  00000+0 0  9999
2 25544  51.6449 176.5091 0007494 115.3935 208.1928 15.50164448192292
PCSAT
1 26931U 01043C   19277.86748014 -.00000044  00000-0  15117-4 0  9991
2 26931  67.0502  84.5314 0007424 269.4554  90.5697 14.30554106940446
SAUDISAT 1C
1 27607U 02058C   19277.85001161 -.00000006 +00000-0 +19947-4 0  9996
2 27607 064.5543 078.9122 0075789 235.4954 123.8976 14.75575730902863
CUTE-1
1 27844U 03031E   19277.92762923 +.00000040 +00000-0 +37730-4 0  9996
2 27844 098.6856 284.5277 0010932 079.3933 280.8475 14.22197462843639
CUBESAT XI 4
1 27848U 03031J   19277.45803012  .00000025  00000-0  31002-4 0  9992
2 27848  98.6931 284.5875 0010876  91.0502 269.1922 14.21790083843455
MOZHAYETS 4
1 27939U 03042A   19277.89873637 +.00000065 +00000-0 +20172-4 0  9993
2 27939 098.0572 051.7017 0014173 085.8894 274.3926 14.66807017856408
CUBESAT XI 5
1 28895U 05043F   19277.93025135 +.00000122 +00000-0 +32291-4 0  9994
2 28895 097.9750 057.0488 0017010 014.7495 345.4201 14.63695822743089
CUTE-1.7+APD II
1 32785U 08021C   19277.86018745  .00000190  00000-0  26111-4 0  9996
2 32785  97.5557 272.5042 0011509 263.9094  96.0812 14.88352129619775
DELFI C3
1 32789U 08021G   19277.71233473  .00000747  00000-0  53607-4 0  9999
2 32789  97.4539 324.0674 0013755 113.5838 246.6836 15.07147328623233
SEEDS
1 32791U 08021J   19277.83036275 +.00000350 +00000-0 +40815-4 0  9993
2 32791 097.5316 278.5483 0012054 234.0785 125.9316 14.90879379620140
YUBELEINY
1 32953U 08025A   19277.89534052 +.00000020 +00000-0 +75656-4 0  9994
2 32953 082.4981 077.4649 0018706 252.9791 106.9245 12.43091379515759
PRISM (HITOMI)
1 33493U 09002B   19277.83349018 +.00000120 +00000-0 +16091-4 0  9999
2 33493 098.1218 202.8893 0014635 179.7896 180.3333 14.96752278581311
KKS-1 (KISEKI)
1 33499U 09002H   19277.90971360 +.00000094 +00000-0 +21942-4 0  9995
2 33499 098.3425 120.0364 0008298 216.1393 143.9256 14.75466384574755
SWISSCUBE
1 35932U 09051B   19277.87973976 +.00000127 +00000-0 +39697-4 0  9997
2 35932 098.5982 087.0900 0007454 185.6441 174.4673 14.56314459532484
BEESAT
1 35933U 09051C   19277.46400749  .00000107  00000-0  35095-4 0  9992
2 35933  98.6000  88.4649 0005381 198.0150 162.0857 14.56399701532574
ITUPSAT 1
1 35935U 09051E   19277.72143956 +.00000073 +00000-0 +27949-4 0  9998
2 35935 098.6111 088.9601 0007727 197.7837 162.3090 14.55555509532320
XIWANG-1 (HOPE-1)
1 36122U 09072B   19277.73834905 -.00000022 +00000-0 +51880-4 0  9998
2 36122 100.0773 275.0570 0008003 095.1806 265.0221 13.16351589471091
TISAT 1
1 36799U 10035E   19277.92121551 +.00000489 +00000-0 +55312-4 0  9996
2 36799 098.1698 073.7587 0013573 091.3633 268.9139 14.91168029500697
JUGNU
1 37839U 11058B   19277.67917608 +.00000335 +00000-0 +36823-4 0  9992
2 37839 019.9622 039.9218 0019095 077.3092 050.2844 14.12660434412433
SRMSAT
1 37841U 11058D   19277.88644185  .00000296  00000-0  17377-4 0  9994
2 37841  19.9721  97.6778 0011833 305.3593 197.8968 14.10640326411980
M-CUBED/EXP-1 PRIME
1 37855U 11061F   19277.79459491  .00001019  00000-0  58506-4 0  9990
2 37855 101.7147 228.8869 0173042 116.2430 245.6682 15.05614770433041
HORYU 2
1 38340U 12025D   19277.92545009 +.00000152 +00000-0 +30179-4 0  9990
2 38340 098.3191 319.7082 0012478 135.3533 224.8682 14.75755036386716
STRAND 1
1 39090U 13009E   19277.78551971 +.00000013 +00000-0 +19695-4 0  9991
2 39090 098.4782 121.8837 0008688 334.8493 025.2268 14.35099183345870
SOMP
1 39134U 13015E   19277.70520074 +.00001299 +00000-0 +67908-4 0  9996
2 39134 064.8646 030.4429 0036310 285.5598 074.1523 15.20364159356634
BEESAT 3
1 39135U 13015F   19277.81991924 +.00000938 +00000-0 +55704-4 0  9995
2 39135 064.8690 049.9037 0035360 294.4988 065.2452 15.17630092356269
BEESAT 2
1 39136U 13015G   19277.76628237 +.00000855 +00000-0 +52684-4 0  9996
2 39136 064.8696 054.2093 0027135 300.0580 059.7855 15.17048853356173
CUBEBUG 1
1 39153U 13018D   19277.82690617  .00000194  00000-0  32163-4 0  9992
2 39153  97.9808  15.3596 0016426 203.7900 156.2555 14.80602093347818
ZACUBE
1 39417U 13066B   19277.93200650 +.00000206 +00000-0 +32160-4 0  9995
2 39417 097.5629 285.3514 0059907 040.2853 320.2776 14.81155472317066
TRITON 1
1 39427U 13066M   19277.91002785 +.00000175 +00000-0 +35822-4 0  9996
2 39427 097.6895 248.6739 0113715 178.2798 181.8822 14.67885074314020
GOMX 1
1 39430U 13066Q   19277.89218492 +.00000186 +00000-0 +43083-4 0  9991
2 39430 097.7571 227.3766 0149947 273.3669 085.0397 14.59291990312388
HUMSAT D
1 39433U 13066T   19277.64054325  .00000167  00000-0  21629-4 0  9991
2 39433  97.5431 320.6761 0029360 301.9571  57.8794 14.92261505319170
CUBEBUG 2
1 39440U 13066AA  19277.88905284 +.00000196 +00000-0 +33915-4 0  9997
2 39440 097.6093 269.9741 0081728 093.4054 267.6510 14.75892389314736
FUNCUBE 1
1 39444U 13066AE  19277.73751193  .00000269  00000-0  39323-4 0  9993
2 39444  97.5601 287.2153 0058918  34.4370 326.0640 14.81982602315937
UWE-3
1 39446U 13066AG  19277.57249130  .00000205  00000-0  33701-4 0  9994
2 39446  97.5853 276.8061 0071456  68.4822 292.3988 14.78427611315201
SPROUT
1 39770U 14029E   19277.87431475 +.00000891 +00000-0 +10446-3 0  9993
2 39770 097.8883 020.4950 0009992 090.4845 269.7494 14.87445431290913
UNISAT 6
1 40012U 14033C   19277.61161079 +.00000150 +00000-0 +29596-4 0  9996
2 40012 097.7417 139.4926 0059622 109.0964 251.6714 14.74012822284585
DUCHIFAT 1
1 40021U 14033M   19277.75075581  .00000475  00000-0  54203-4 0  9996
2 40021  97.9238 202.7028 0014202  56.8221 303.4357 14.90694599287649
QB50P1
1 40025U 14033R   19277.82829532 +.00000238 +00000-0 +31246-4 0  9990
2 40025 097.9034 197.3257 0013834 066.1388 294.1277 14.88991222286903
CHUBUSAT 1
1 40300U 14070C   19277.81090966  .00000767  00000-0  36215-4 0  9995
2 40300  97.3187 349.2176 0021061  38.1229 101.0012 15.22191185272462
NUDT-PHONESAT
1 40900U 15049B   19277.91788693 +.00002192 +00000-0 +95787-4 0  9993
2 40900 097.4378 286.2100 0012924 157.7992 251.3853 15.23097896224139
ZDPS 2A
1 40901U 15049C   19277.92971829 +.00000946 +00000-0 +49984-4 0  9993
2 40901 097.4615 282.2045 0013087 179.6199 270.6087 15.17856672223658
ZDPS 2B
1 40902U 15049D   19277.96043405 +.00001085 +00000-0 +57061-4 0  9998
2 40902 097.4573 279.6440 0013304 177.6050 237.9227 15.17715430223633
XW-2A
1 40903U 15049E   19277.89786287 +.00002176 +00000-0 +52639-4 0  9991
2 40903 097.3268 321.2262 0015020 110.6152 013.1464 15.42149843226926
KAITUO 1A
1 40904U 15049F   19277.95652828 +.00000419 +00000-0 +25596-4 0  9992
2 40904 097.4705 278.1344 0014222 186.8742 255.0436 15.15448165223391
OBJECT G
1 40905U 15049G   19277.91670727 +.00000562 +00000-0 +34142-4 0  9993
2 40905 097.4753 275.5345 0015353 182.8000 264.5865 15.14356043223254
XW-2C
1 40906U 15049H   19277.93195061 +.00000773 +00000-0 +43914-4 0  9990
2 40906 097.4711 278.2413 0014438 177.8512 247.8467 15.15770046223391
XW-2D
1 40907U 15049J   19277.95984431 +.00000505 +00000-0 +29757-4 0  9992
2 40907 097.4690 277.9495 0014157 175.3187 238.9008 15.15963753223417
LILACSAT 2
1 40908U 15049K   19277.92545810 +.00000620 +00000-0 +37819-4 0  9990
2 40908 097.4829 276.6235 0015483 183.1929 236.5908 15.13860724223183
XW-2F
1 40910U 15049M   19277.83066065  .00000956  00000-0  51031-4 0  9997
2 40910  97.4657 279.9848 0014840 167.7491 314.2575 15.17445412223416
XW-2B
1 40911U 15049N   19277.81227029  .00000842  00000-0  47382-4 0  9993
2 40911  97.4716 278.4719 0013860 175.9167 307.8967 15.15894259223289
KAITUO 1B
1 40912U 15049P   19277.82886751  .00001189  00000-0  58658-4 0  9991
2 40912  97.4506 283.7948 0015516 149.7703 334.3996 15.19776284223733
TIANWANG 1C (TW-1C)
1 40926U 15051B   19277.91306802  .00014133  00000-0  19172-3 0  9993
2 40926  97.1235 324.0137 0007082 342.5565 143.2369 15.57729057226991
TIANWANG 1B (TW-1B)
1 40927U 15051C   19277.84953825  .00012953  00000-0  18736-3 0  9992
2 40927  97.1270 323.0996 0007433 356.8367  89.5675 15.56008757226821
